TimePDT,TemperatureF,Dew PointF,Humidity,Sea Level PressureIn,VisibilityMPH,Wind Direction,Wind SpeedMPH,Gust SpeedMPH,PrecipitationIn,Events,Conditions,WindDirDegrees,DateUTC
12:00 AM,32.0,32.0,100,29.73,9.0,NNW,4.6,-,N/A,Snow,Light Snow,330,2012-10-28 07:00:00
12:19 AM,32.0,32.0,100,29.73,5.0,NNW,6.9,-,N/A,Snow,Light Snow,330,2012-10-28 07:19:00
12:33 AM,32.0,32.0,100,29.73,6.0,NW,6.9,-,N/A,Snow,Light Snow,320,2012-10-28 07:33:00
12:48 AM,32.0,32.0,100,29.73,5.0,NW,5.8,-,N/A,Snow,Light Snow,310,2012-10-28 07:48:00
12:58 AM,32.0,32.0,100,29.73,6.0,NW,6.9,-,N/A,Snow,Light Snow,310,2012-10-28 07:58:00
1:00 AM,32.0,32.0,100,29.73,7.0,NW,6.9,-,N/A,Snow,Light Snow,310,2012-10-28 08:00:00
2:00 AM,32.0,30.2,93,29.73,8.0,NW,8.1,-,N/A,Snow,Light Snow,320,2012-10-28 09:00:00
2:04 AM,32.0,30.2,93,29.73,5.0,NW,8.1,-,N/A,Snow,Light Snow,320,2012-10-28 09:04:00
2:11 AM,32.0,30.2,93,29.74,3.0,NW,8.1,-,N/A,Snow,Light Snow,310,2012-10-28 09:11:00
2:13 AM,32.0,30.2,93,29.74,3.0,NW,5.8,-,N/A,Snow,Light Snow,320,2012-10-28 09:13:00
2:14 AM,32.0,30.2,93,29.74,3.0,NW,5.8,-,N/A,Snow,Light Snow,320,2012-10-28 09:14:00
2:23 AM,32.0,30.2,93,29.74,2.5,NW,6.9,-,N/A,Snow,Light Snow,310,2012-10-28 09:23:00
2:30 AM,32.0,30.2,93,29.74,2.5,NW,8.1,-,N/A,Snow,Light Snow,320,2012-10-28 09:30:00
2:31 AM,32.0,30.2,93,29.74,2.5,NW,8.1,-,N/A,Snow,Light Snow,320,2012-10-28 09:31:00
2:33 AM,32.0,30.2,93,29.74,2.5,NW,8.1,-,N/A,Snow,Light Snow,310,2012-10-28 09:33:00
2:39 AM,32.0,30.2,93,29.74,3.0,NW,6.9,-,N/A,Snow,Light Snow,320,2012-10-28 09:39:00
2:48 AM,30.2,30.2,100,29.75,6.0,NW,8.1,-,N/A,Snow,Light Snow,320,2012-10-28 09:48:00
3:00 AM,30.2,30.2,100,29.75,9.0,NW,8.1,-,N/A,Snow,Light Snow,320,2012-10-28 10:00:00
3:11 AM,30.2,30.2,100,29.75,9.0,NNW,8.1,-,N/A,Snow,Light Snow,330,2012-10-28 10:11:00
3:19 AM,30.2,30.2,100,29.75,7.0,NNW,9.2,-,N/A,Snow,Light Snow,330,2012-10-28 10:19:00
3:25 AM,30.2,28.4,93,29.75,5.0,NNW,8.1,-,N/A,Snow,Light Snow,330,2012-10-28 10:25:00
3:30 AM,30.2,28.4,93,29.75,6.0,NNW,9.2,-,N/A,Snow,Light Snow,330,2012-10-28 10:30:00
3:35 AM,30.2,28.4,93,29.75,5.0,NNW,9.2,-,N/A,Snow,Light Snow,330,2012-10-28 10:35:00
3:43 AM,30.2,28.4,93,29.75,7.0,NNW,9.2,-,N/A,Snow,Light Snow,330,2012-10-28 10:43:00
4:00 AM,30.2,28.4,93,29.76,9.0,NNW,8.1,-,N/A,Snow,Light Snow,340,2012-10-28 11:00:00
4:17 AM,30.2,28.4,93,29.78,5.0,NNW,12.7,-,N/A,Snow,Light Snow,330,2012-10-28 11:17:00
4:22 AM,30.2,28.4,93,29.78,2.5,NNW,11.5,-,N/A,Snow,Light Snow,330,2012-10-28 11:22:00
4:23 AM,30.2,28.4,93,29.78,2.5,NNW,12.7,-,N/A,Snow,Light Snow,330,2012-10-28 11:23:00
4:37 AM,28.4,28.4,100,29.78,1.0,NNW,13.8,-,N/A,Snow,Light Snow,330,2012-10-28 11:37:00
4:53 AM,28.4,26.6,93,29.78,0.8,NNW,12.7,-,N/A,Snow,Light Snow,340,2012-10-28 11:53:00
5:00 AM,28.4,26.6,93,29.79,0.6,NNW,11.5,-,N/A,Snow,Light Snow,340,2012-10-28 12:00:00
5:20 AM,28.4,26.6,93,29.80,1.8,NW,12.7,-,N/A,Snow,Light Snow,320,2012-10-28 12:20:00
5:57 AM,26.6,24.8,93,29.82,0.8,NNW,12.7,-,N/A,Snow,Light Snow,330,2012-10-28 12:57:00
6:00 AM,26.6,24.8,93,29.83,0.8,NNW,12.7,-,N/A,Snow,Light Snow,330,2012-10-28 13:00:00
6:05 AM,26.6,24.8,93,29.83,0.8,NNW,12.7,-,N/A,Snow,Light Snow,340,2012-10-28 13:05:00
6:45 AM,26.6,24.8,93,29.83,1.8,NNW,12.7,-,N/A,Snow,Light Snow,330,2012-10-28 13:45:00
7:00 AM,24.8,24.8,100,29.84,2.0,NNW,8.1,-,N/A,Snow,Light Snow,340,2012-10-28 14:00:00
7:25 AM,24.8,23.0,93,29.86,1.2,North,6.9,-,N/A,Snow,Light Snow,10,2012-10-28 14:25:00
8:00 AM,24.8,23.0,93,29.87,0.5,NNW,11.5,-,N/A,Snow,Snow,340,2012-10-28 15:00:00
8:29 AM,24.8,23.0,93,29.89,0.6,NNW,10.4,-,N/A,Snow,Light Snow,340,2012-10-28 15:29:00
8:34 AM,24.8,23.0,93,29.89,0.8,NNW,9.2,-,N/A,Snow,Light Snow,340,2012-10-28 15:34:00
9:00 AM,23.0,23.0,100,29.89,0.6,North,5.8,-,N/A,Snow,Light Snow,360,2012-10-28 16:00:00
9:14 AM,23.0,23.0,100,29.89,1.0,North,3.5,-,N/A,Snow,Light Snow,360,2012-10-28 16:14:00
9:25 AM,24.8,21.2,86,29.89,3.0,North,6.9,-,N/A,Snow,Light Snow,350,2012-10-28 16:25:00
9:30 AM,24.8,21.2,86,29.90,6.0,North,9.2,-,N/A,Snow,Light Snow,350,2012-10-28 16:30:00
9:48 AM,24.8,21.2,86,29.90,9.0,NNW,5.8,-,N/A,Snow,Light Snow,340,2012-10-28 16:48:00
10:00 AM,24.8,21.2,86,29.91,9.0,NNW,6.9,-,N/A,Snow,Light Snow,330,2012-10-28 17:00:00
10:18 AM,24.8,21.2,86,29.91,9.0,North,5.8,-,N/A,Snow,Light Snow,350,2012-10-28 17:18:00
10:28 AM,24.8,21.2,86,29.90,5.0,North,4.6,-,N/A,Snow,Light Snow,10,2012-10-28 17:28:00
10:30 AM,24.8,21.2,86,29.91,5.0,North,4.6,-,N/A,Snow,Light Snow,360,2012-10-28 17:30:00
10:51 AM,24.8,21.2,86,29.91,6.0,NNE,4.6,-,N/A,Snow,Light Snow,20,2012-10-28 17:51:00
10:54 AM,24.8,21.2,86,29.91,5.0,North,5.8,-,N/A,Snow,Light Snow,10,2012-10-28 17:54:00
10:59 AM,24.8,21.2,86,29.92,2.2,North,4.6,-,N/A,Snow,Light Snow,10,2012-10-28 17:59:00
11:00 AM,24.8,21.2,86,29.92,2.0,North,4.6,-,N/A,Snow,Light Snow,350,2012-10-28 18:00:00
11:23 AM,24.8,21.2,86,29.92,0.8,NNW,4.6,-,N/A,Snow,Light Snow,340,2012-10-28 18:23:00
11:24 AM,24.8,21.2,86,29.92,0.8,NNW,4.6,-,N/A,Snow,Light Snow,340,2012-10-28 18:24:00
11:27 AM,24.8,21.2,86,29.93,0.8,NNW,5.8,-,N/A,Snow,Light Snow,340,2012-10-28 18:27:00
12:00 PM,24.8,21.2,86,29.94,2.5,North,5.8,-,N/A,Snow,Light Snow,360,2012-10-28 19:00:00
12:12 PM,23.0,21.2,93,29.94,0.4,NNE,5.8,-,N/A,Snow,Snow,30,2012-10-28 19:12:00
12:17 PM,23.0,21.2,93,29.94,0.4,NNE,5.8,-,N/A,Snow,Snow,20,2012-10-28 19:17:00
12:32 PM,24.8,21.2,86,29.94,1.0,NNE,4.6,-,N/A,Snow,Light Snow,20,2012-10-28 19:32:00
12:37 PM,24.8,21.2,86,29.94,0.8,North,4.6,-,N/A,Snow,Light Snow,10,2012-10-28 19:37:00
12:53 PM,24.8,21.2,86,29.95,3.0,North,4.6,-,N/A,Snow,Light Snow,350,2012-10-28 19:53:00
1:00 PM,24.8,21.2,86,29.96,4.0,North,8.1,-,N/A,Snow,Light Snow,350,2012-10-28 20:00:00
1:03 PM,24.8,21.2,86,29.96,2.5,North,6.9,-,N/A,Snow,Light Snow,350,2012-10-28 20:03:00
2:00 PM,24.8,21.2,86,29.95,0.8,NW,3.5,-,N/A,Snow,Light Snow,320,2012-10-28 21:00:00
2:06 PM,24.8,21.2,86,29.95,3.0,NNW,3.5,-,N/A,Snow,Light Snow,330,2012-10-28 21:06:00
2:11 PM,24.8,21.2,86,29.95,6.0,NW,3.5,-,N/A,Snow,Light Snow,310,2012-10-28 21:11:00
2:14 PM,24.8,23.0,93,29.95,5.0,WNW,2.3,-,N/A,Snow,Light Snow,300,2012-10-28 21:14:00
2:21 PM,24.8,21.2,86,29.95,2.5,Calm,Calm,-,N/A,Snow,Light Snow,0,2012-10-28 21:21:00
2:31 PM,24.8,23.0,93,29.96,1.5,NW,2.3,-,N/A,Snow,Light Snow,310,2012-10-28 21:31:00
2:56 PM,24.8,23.0,93,29.95,3.0,North,4.6,-,N/A,Snow,Light Snow,350,2012-10-28 21:56:00
3:00 PM,24.8,23.0,93,29.94,4.0,North,3.5,-,N/A,Snow,Light Snow,350,2012-10-28 22:00:00
3:06 PM,24.8,23.0,93,29.94,5.0,Variable,2.3,-,N/A,Snow,Light Snow,0,2012-10-28 22:06:00
3:15 PM,24.8,23.0,93,29.95,2.0,Variable,2.3,-,N/A,Snow,Light Snow,0,2012-10-28 22:15:00
3:25 PM,24.8,23.0,93,29.95,5.0,WNW,2.3,-,N/A,Snow,Light Snow,290,2012-10-28 22:25:00
3:37 PM,24.8,23.0,93,29.95,2.5,NW,2.3,-,N/A,Snow,Light Snow,310,2012-10-28 22:37:00
3:50 PM,24.8,23.0,93,29.95,1.8,NNW,4.6,-,N/A,Snow,Light Snow,330,2012-10-28 22:50:00
4:00 PM,24.8,23.0,93,29.95,1.0,NNW,3.5,-,N/A,Snow,Light Snow,330,2012-10-28 23:00:00
4:10 PM,24.8,23.0,93,29.95,2.2,WNW,3.5,-,N/A,Snow,Light Snow,300,2012-10-28 23:10:00
4:18 PM,24.8,24.8,100,29.94,3.0,Calm,Calm,-,N/A,Snow,Light Snow,0,2012-10-28 23:18:00
4:35 PM,24.8,24.8,100,29.95,2.5,NNW,3.5,-,N/A,Snow,Light Snow,330,2012-10-28 23:35:00
4:47 PM,24.8,24.8,100,29.94,3.0,NNW,3.5,-,N/A,Snow,Light Snow,330,2012-10-28 23:47:00
4:58 PM,24.8,24.8,100,29.94,6.0,NNW,4.6,-,N/A,Snow,Light Snow,340,2012-10-28 23:58:00
5:00 PM,24.8,24.8,100,29.94,5.0,NNW,4.6,-,N/A,Snow,Light Snow,340,2012-10-29 00:00:00
5:07 PM,24.8,24.8,100,29.94,6.0,NNW,5.8,-,N/A,Snow,Light Snow,330,2012-10-29 00:07:00
5:56 PM,24.8,23.0,93,29.94,5.0,WNW,3.5,-,N/A,Snow,Light Snow,300,2012-10-29 00:56:00
6:00 PM,24.8,23.0,93,29.94,4.0,West,3.5,-,N/A,Snow,Light Snow,280,2012-10-29 01:00:00
6:03 PM,24.8,23.0,93,29.94,2.5,WNW,2.3,-,N/A,Snow,Light Snow,290,2012-10-29 01:03:00
6:04 PM,24.8,23.0,93,29.94,2.5,WNW,2.3,-,N/A,Snow,Light Snow,300,2012-10-29 01:04:00
7:31 PM,24.8,24.8,100,29.92,1.8,North,2.3,-,N/A,Snow,Light Snow,10,2012-10-29 02:31:00
8:00 PM,24.8,23.0,93,29.92,1.8,NNW,2.3,-,N/A,Snow,Light Snow,330,2012-10-29 03:00:00
8:16 PM,24.8,23.0,93,29.91,3.0,NW,2.3,-,N/A,Snow,Light Snow,320,2012-10-29 03:16:00
8:41 PM,24.8,23.0,93,29.91,6.0,NW,5.8,-,N/A,Snow,Light Snow,310,2012-10-29 03:41:00
9:00 PM,24.8,23.0,93,29.90,9.0,NW,4.6,-,N/A,Snow,Light Snow,310,2012-10-29 04:00:00
9:05 PM,24.8,23.0,93,29.89,9.0,NNW,2.3,-,N/A,,Overcast,340,2012-10-29 04:05:00
10:00 PM,24.8,23.0,93,29.90,9.0,Variable,2.3,-,N/A,,Overcast,0,2012-10-29 05:00:00
10:55 PM,24.8,23.0,93,29.88,9.0,Calm,Calm,-,N/A,,Overcast,0,2012-10-29 05:55:00
11:00 PM,24.8,23.0,93,29.88,9.0,Calm,Calm,-,N/A,,Overcast,0,2012-10-29 06:00:00